Bratislava, Slovakia

6:06 AM CEST on May 30, 2017 (GMT +0200)
M.R. Stefanik

Weather History for LZIB - February, 2013

Change the Weather History Date:

Sunday, February 3, 2013

  Actual Average Record
Temperature  
Mean Temperature 36 °F -  
Max Temperature 39 °F 41 °F 52 °F (2016)
Min Temperature 33 °F 28 °F 6 °F (2012)
Degree Days  
Heating Degree Days 29    
Moisture  
Dew Point 22 °F    
Average Humidity 52    
Maximum Humidity 70    
Minimum Humidity 29    
Precipitation  
Precipitation 0.00 in - - ()
Sea Level Pressure  
Sea Level Pressure 29.83 in    
Wind  
Wind Speed 16 mph ()    
Max Wind Speed 29 mph    
Max Gust Speed 40 mph    
Visibility 9.8 miles    
Events Snow    
Averages and records for this station are not official NWS values.
T = Trace of Precipitation, MM = Missing Value Source: Averaged Metar Reports

Daily Weather History Graph

Daily Weather History Graph

Search for Another Location

Airport or City:

Trip Planner

Search our weather history database for the weather conditions in past years. The results will help you decide how hot, cold, wet, or windy it might be!

Date:

Astronomy

Feb. 03, 2013 Rise Set
Actual Time 7:16 AM CET 4:54 PM CET
Civil Twilight 6:43 AM CET 5:27 PM CET
Nautical Twilight 6:06 AM CET 6:04 PM CET
Astronomical Twilight 5:29 AM CET 6:40 PM CET
Moon 12:23 AM CET (2/3) 10:17 AM CET (2/3)
Length of Visible Light 10h 43m
Length of Day
9h 37m
Waning Gibbous, 51% of the Moon is Illuminated
Feb 3
Waning Gibbous
Feb 3
Last Quarter
Feb 10
New
Feb 17
First Quarter
Feb 25
Full

Hourly Weather History & Observations

Time (CET) Temp. Windchill Dew Point Humidity Pressure Visibility Wind Dir Wind Speed Gust Speed Precip Events Conditions
12:00 AM 39 °F - 28 °F 55% 29.62 in 12 mi NNW 17.9 mph - -   Overcast
12:00 AM 39.2 °F 30.2 °F 28.4 °F 65% 29.59 in 6.2 mi NNW 17.3 mph - N/A   Partly Cloudy
12:30 AM 39.2 °F 30.2 °F 28.4 °F 65% 29.59 in 6.2 mi NNW 17.3 mph - N/A   Mostly Cloudy
1:00 AM 38 °F - 28 °F 58% 29.64 in 12 mi NNW 15.7 mph - -   Overcast
1:00 AM 39.2 °F 30.2 °F 28.4 °F 65% 29.59 in 6.2 mi NNW 17.3 mph - N/A   Mostly Cloudy
1:30 AM 39.2 °F 30.2 °F 28.4 °F 65% 29.62 in 6.2 mi NNW 17.3 mph - N/A   Mostly Cloudy
2:00 AM 38 °F - 29 °F 58% 29.67 in 12 mi NW 15.7 mph - -   Overcast
2:00 AM 37.4 °F 27.5 °F 28.4 °F 70% 29.62 in 6.2 mi NNW 18.4 mph - N/A   Mostly Cloudy
2:30 AM 37.4 °F 27.5 °F 28.4 °F 70% 29.65 in 6.2 mi NW 18.4 mph - N/A   Overcast
3:00 AM 37 °F - 26 °F 54% 29.68 in 12 mi NNW 15.7 mph - -   Overcast
3:00 AM 37.4 °F 27.8 °F 26.6 °F 65% 29.65 in 6.2 mi NNW 17.3 mph - N/A   Overcast
3:30 AM 37.4 °F 28.2 °F 26.6 °F 65% 29.65 in 6.2 mi NNW 16.1 mph - N/A   Overcast
4:00 AM 36 °F - 25 °F 53% 29.71 in 12 mi NNW 15.7 mph - -   Overcast
4:00 AM 35.6 °F 25.5 °F 24.8 °F 65% 29.68 in 6.2 mi NNW 17.3 mph - N/A   Overcast
4:30 AM 35.6 °F 24.0 °F 23.0 °F 60% 29.68 in 6.2 mi NNW 23.0 mph - N/A   Partly Cloudy
5:00 AM 35 °F - 22 °F 46% 29.73 in 12 mi NW 24.6 mph - -   Scattered Clouds
5:00 AM 35.6 °F 23.7 °F 21.2 °F 56% 29.71 in 6.2 mi NNW 24.2 mph - N/A   Partly Cloudy
5:30 AM 33.8 °F 21.3 °F 21.2 °F 60% 29.71 in 6.2 mi NW 24.2 mph - N/A   Mostly Cloudy
6:00 AM 35 °F - 20 °F 42% 29.76 in 12 mi NW 26.8 mph - -   Mostly Cloudy
6:00 AM 33.8 °F 20.8 °F 21.2 °F 60% 29.71 in 6.2 mi NNW 26.5 mph - N/A   Mostly Cloudy
6:30 AM 33.8 °F 20.8 °F 19.4 °F 56% 29.74 in 6.2 mi NNW 26.5 mph - N/A   Mostly Cloudy
7:00 AM 34 °F - 20 °F 43% 29.79 in 12 mi NW 26.8 mph - -   Mostly Cloudy
7:00 AM 33.8 °F 21.0 °F 19.4 °F 56% 29.74 in 6.2 mi NNW 25.3 mph 36.8 mph N/A   Mostly Cloudy
7:30 AM 33.8 °F 21.0 °F 21.2 °F 60% 29.77 in 6.2 mi NW 25.3 mph - N/A   Mostly Cloudy
8:00 AM 33 °F - 21 °F 49% 29.81 in 12 mi NW 22.4 mph - -   Mostly Cloudy
8:00 AM 33.8 °F 21.6 °F 21.2 °F 60% 29.77 in 6.2 mi NNW 23.0 mph - N/A   Mostly Cloudy
8:30 AM 33.8 °F 21.6 °F 19.4 °F 56% 29.80 in 6.2 mi NW 23.0 mph - N/A   Mostly Cloudy
9:00 AM 34 °F - 19 °F 41% 29.84 in 9 mi NW 24.6 mph - -   Partly Cloudy
9:00 AM 33.8 °F 21.6 °F 19.4 °F 56% 29.80 in 6.2 mi NNW 23.0 mph 35.7 mph N/A   Mostly Cloudy
9:30 AM 33.8 °F 21.3 °F 19.4 °F 56% 29.80 in - NW 24.2 mph - N/A   Clear
10:00 AM 34 °F - 19 °F 41% 29.86 in 9 mi NW 29.1 mph - -   Mostly Cloudy
10:00 AM 33.8 °F 20.3 °F 19.4 °F 56% 29.80 in - NNW 28.8 mph 40.3 mph N/A   Clear
10:30 AM 33.8 °F 22.8 °F 19.4 °F 56% 29.83 in 6.2 mi NNW 18.4 mph 34.5 mph N/A   Mostly Cloudy
11:00 AM 35 °F - 21 °F 43% 29.88 in 9 mi NNW 20.1 mph - - Snow Light Snow Showers
11:00 AM 35.6 °F 24.8 °F 21.2 °F 56% 29.83 in 6.2 mi NNW 19.6 mph - N/A Snow Light Snow Showers
11:30 AM 35.6 °F 26.6 °F 19.4 °F 52% 29.86 in 6.2 mi NW 13.8 mph 26.5 mph N/A   Mostly Cloudy
12:00 PM 36 °F - 20 °F 40% 29.89 in 12 mi NW 15.7 mph - - Snow Light Snow Showers
12:00 PM 35.6 °F 26.2 °F 21.2 °F 56% 29.86 in 6.2 mi NW 15.0 mph 27.6 mph N/A   Mostly Cloudy
12:30 PM 35.6 °F 25.5 °F 19.4 °F 52% 29.86 in 6.2 mi NNW 17.3 mph 29.9 mph N/A   Mostly Cloudy
1:00 PM 37 °F - 20 °F 36% 29.91 in 19 mi NW 11.2 mph - -   Partly Cloudy
1:00 PM 37.4 °F 30.8 °F 19.4 °F 48% 29.86 in 6.2 mi NNW 9.2 mph - N/A   Mostly Cloudy
1:30 PM 37.4 °F 32.8 °F 21.2 °F 52% 29.86 in 6.2 mi North 5.8 mph - N/A   Mostly Cloudy
2:00 PM 37 °F - 19 °F 35% 29.91 in 19 mi NNW 11.2 mph - -   Scattered Clouds
2:00 PM 37.4 °F 29.8 °F 19.4 °F 48% 29.86 in 6.2 mi NNW 11.5 mph - N/A   Scattered Clouds
2:30 PM 39.2 °F 32.0 °F 21.2 °F 49% 29.86 in 6.2 mi NNW 11.5 mph - N/A   Mostly Cloudy
3:00 PM 38 °F - 20 °F 34% 29.91 in 19 mi NW 15.7 mph - -   Scattered Clouds
3:00 PM 37.4 °F 28.2 °F 19.4 °F 48% 29.86 in 6.2 mi NW 16.1 mph - N/A   Partly Cloudy
3:30 PM 39.2 °F 29.8 °F 19.4 °F 45% 29.86 in 6.2 mi NNW 18.4 mph - N/A   Partly Cloudy
4:00 PM 39 °F - 18 °F 29% 29.92 in 19 mi NNW 17.9 mph - -   Scattered Clouds
4:00 PM 39.2 °F 29.8 °F 17.6 °F 42% 29.89 in - NNW 18.4 mph - N/A   Clear
4:30 PM 39.2 °F 31.2 °F 17.6 °F 42% 29.89 in - NNW 13.8 mph - N/A   Clear
5:00 PM 37 °F - 17 °F 30% 29.94 in 19 mi NW 15.7 mph - -   Scattered Clouds
5:00 PM 37.4 °F 27.8 °F 17.6 °F 45% 29.92 in - NNW 17.3 mph - N/A   Clear
5:30 PM 35.6 °F 28.0 °F 15.8 °F 44% 29.92 in - NNW 10.4 mph - N/A   Clear
6:00 PM 36 °F - 17 °F 32% 29.97 in 19 mi NNW 11.2 mph - -   Scattered Clouds
6:00 PM 37.4 °F 30.3 °F 15.8 °F 41% 29.95 in - NNW 10.4 mph - N/A   Clear
6:30 PM 35.6 °F 28.0 °F 17.6 °F 48% 29.95 in - NNW 10.4 mph - N/A   Clear
7:00 PM 36 °F - 18 °F 34% 29.99 in 19 mi NW 13.4 mph - -   Scattered Clouds
7:00 PM 35.6 °F 27.1 °F 17.6 °F 48% 29.95 in - NW 12.7 mph - N/A   Clear
7:30 PM 35.6 °F 29.2 °F 19.4 °F 52% 29.95 in - WNW 8.1 mph - N/A   Clear
8:00 PM 35 °F - 20 °F 40% 30.00 in 19 mi WNW 8.9 mph - -   Scattered Clouds
8:00 PM 33.8 °F 27.0 °F 19.4 °F 56% 29.98 in - WNW 8.1 mph - N/A   Clear
8:30 PM 35.6 °F 28.6 °F 21.2 °F 56% 29.98 in - WNW 9.2 mph - N/A   Clear
9:00 PM 36 °F - 22 °F 45% 30.00 in 19 mi WNW 6.7 mph - -   Mostly Cloudy
9:00 PM 35.6 °F 29.9 °F 21.2 °F 56% 29.98 in - WNW 6.9 mph - N/A   Clear
9:30 PM 35.6 °F 28.0 °F 23.0 °F 60% 29.98 in - WNW 10.4 mph - N/A   Clear
10:00 PM 36 °F - 24 °F 49% 29.99 in 19 mi West 6.7 mph - -   Mostly Cloudy
10:00 PM 37.4 °F 31.4 °F 24.8 °F 60% 29.95 in - West 8.1 mph - N/A   Clear
10:30 PM 37.4 °F 31.4 °F 24.8 °F 60% 29.95 in - West 8.1 mph - N/A   Clear
11:00 PM 37 °F - 25 °F 49% 29.98 in 12 mi WSW 6.7 mph - -   Mostly Cloudy
11:00 PM 37.4 °F 32.8 °F 24.8 °F 60% 29.95 in 6.2 mi West 5.8 mph - N/A   Mostly Cloudy
11:30 PM 37.4 °F 32.1 °F 24.8 °F 60% 29.95 in - West 6.9 mph - N/A   Clear